Вернуться в каталог

FENGYUN 1C DEB

АктивенSSO
NORAD 31256·DEBRIS·🇨🇳 China

Запущен May 10, 1999 с Taiyuan Satellite Launch Center

Loading…

Ближайшие Пролёты (ближайшие 24 часа)

TLE

СвежийSource: Space-Track

Эпоха: Sep 11, 2026, 11:59 UTC

1 31256U 99025BMN 26254.49976562  .00003327  00000-0  13446-2 0  9994
2 31256  98.6613  95.7227 0302275  65.2652 297.9658 14.06511384688123

Отслеживайте FENGYUN 1C DEB в реальном времени с AllMySat

Download on the App Store